Location: Casone le Fosse
(44.6547°N, 12.1103°E)
Time: 03:49:44
(UTC+00:00)

Cosmos 2278 - Pass Details

Date: 29 October 2020
Orbit: 841 x 851 km, 71.1° (Epoch: 01 December)

Event Time Altitude Azimuth Distance (km) Brightness Sun altitude
Rises 18:02:07 0° 197° (SSW) 3,397 7.0 -21.5°
Reaches altitude 10° 18:04:34 10° 195° (SSW) 2,464 6.3 -21.9°
Maximum altitude 18:10:12 72° 112° (ESE) 891 3.6 -22.9°
Enters shadow 18:12:36 35° 37° (NE) 1,330 4.4 -23.3°
